Notices

What's New in latest Release from April 7th, 2021:

- Updated Glossary, including Speed of Maximum Gust, and Total Hourly Precipitation

- Updated national and regional climate services offices contacts and prices information

- Addition of station inventory lists for 1981-2010, 1971-2000, and 1961-1990 Normals.

If you haven't already, please take our survey and provide feedback about our website: https://eccc.sondage-survey.ca/f/LanguageSelection.aspx?s=442ca660-fcf1-47c0-95a9-59707d6fd709

Hourly Data Report for April 04, 2017

MIRAMICHI RCS
NEW BRUNSWICK

47°00'34.000" N
65°27'54.000" W
33.00 m
8100989
71744
ACQ

Download Data

Hourly Data (April 2017)
Hourly Data Report for April 4, 2017
TIME
LST
Temp Definition
°C
Dew Point Definition
°C
Rel Hum Definition
%
Precip. Amount Definition
mm

Wind Dir Definition
10's deg

Wind Spd Definition
km/h
Visibility Definition
km
Stn Press Definition
kPa
Hmdx Definition


Wind Chill Definition


Weather Definition


00:00 -4.2 -5.6 90 0.0 25 6   101.34   -7 LegendNANA
01:00 -3.6 -5.4 87 0.0 26 5   101.33   -6 LegendNANA
02:00 -5.1 -6.5 90 0.0 26 6   101.33   -8 LegendNANA
03:00 -4.3 -6.0 88 0.0 27 3   101.34   -6 LegendNANA
04:00 -6.0 -7.2 91 0.0 26 3   101.32   -7 LegendNANA
05:00 -5.7 -7.4 88 0.0 26 5   101.38   -8 LegendNANA
06:00 -5.7 -7.4 88 0.0 26 6   101.44   -9 LegendNANA
07:00 -5.3 -7.8 82 0.0 0 1   101.50   -6 LegendNANA
08:00 -1.9 -6.1 73 0.0   0   101.51     LegendNANA
09:00 1.4 -5.1 62 0.0 7 17   101.50     LegendNANA
10:00 3.1 -3.1 64 0.0 7 13   101.52     LegendNANA
11:00 4.0 -3.3 59 0.0 6 12   101.52     LegendNANA
12:00 4.1 -3.0 60 0.0 5 15   101.46     LegendNANA
13:00 3.4 -2.3 66 0.0 5 21   101.41     LegendNANA
14:00 3.9 -3.4 59 0.0 6 18   101.37     LegendNANA
15:00 3.4 -3.8 60 0.0 6 19   101.35     LegendNANA
16:00 2.6 -3.6 64 0.0 7 21   101.30     LegendNANA
17:00 2.0 -3.4 67 0.0 7 19   101.31     LegendNANA
18:00 0.5 -3.8 73 0.0 6 16   101.34     LegendNANA
19:00 -0.1 -3.7 77 0.0 8 17   101.40   -5 LegendNANA
20:00 -0.6 -3.1 83 0.0 9 19   101.44   -6 LegendNANA
21:00 -0.9 -3.3 84 0.0 7 15   101.45   -6 LegendNANA
22:00 -1.1 -3.9 81 0.0 8 16   101.43   -6 LegendNANA
23:00 -1.4 -3.8 84 0.0 7 16   101.43   -6 LegendNANA

Notes on Data Quality.

Legend

  • E = Estimated
  • M = Missing
  • NA = Not Available*
  • [empty] = Indicates an unobserved value
Date modified: